Location: Clanezzo
(45.7500°N, 9.6000°E)
Time: 09:18:25
(UTC+00:00)

CUTE-I - Pass Details

Date: 05 December 2023
Orbit: 807 x 822 km, 98.7° (Epoch: 23 February)

Event Time Altitude Azimuth Distance (km) Brightness Sun altitude
Rises 05:15:01 0° 19° (NNE) 3,361 ? -15.3°
Reaches altitude 10° 05:17:29 10° 26° (NNE) 2,427 ? -14.9°
Maximum altitude 05:22:37 45° 99° (E) 1,105 ? -14.0°
Drops below altitude 10° 05:27:45 10° 172° (S) 2,415 ? -13.2°
Sets 05:30:11 0° 178° (S) 3,344 ? -12.8°
